Regional Weather Roundup
Issued by NWS

Home | Current Version | Previous Version | Graphics & Text | Print | Product List | Glossary On
Versions: 1 2 3 4 5 6 7 8 9 10 11 12 13 14 15 16 17 18 19 20 21 22 23 24 25 26
000
ASUS45 KCYS 130410
RWRWY

WYOMING REGIONAL WEATHER ROUNDUP
NATIONAL WEATHER SERVICE CHEYENNE WY
900 PM MST TUE DEC 12 2017

NOTE:  "FAIR" INDICATES FEW OR NO CLOUDS BELOW 12,000 FEET
WITH NO SIGNIFICANT WEATHER AND/OR OBSTRUCTIONS TO VISIBILITY.

WYZ001-130500-
YELLOWSTONE NATIONAL PARK

CITY           SKY/WX    TMP DP  RH WIND       PRES   REMARKS
LK YELLOWSTONE   N/A     18  15  88 CALM      30.34F
W YELLOWSTONE  NOT AVBL

$$
WYZ002>013-054>058-071-098>099-130500-
NORTHERN WYOMING

CITY           SKY/WX    TMP DP  RH WIND       PRES   REMARKS
JACKSON        FAIR      19  14  81 E3        30.35F
CODY           FAIR      52   0  12 W10       30.14F
GREYBULL       MOCLDY    28  17  63 N5        30.12F WCI  23
WORLAND        FAIR      24  19  81 S7        30.12F WCI  16
SHERIDAN       FAIR      46  10  23 N10       30.07F
BUFFALO        FAIR      49   1  14 N17G25    30.08R
GILLETTE       FAIR      47   7  19 NW21      30.02F
HULETT         FAIR      50  14  23 NW6G23    30.00R
NEWCASTLE      FAIR      43  14  31 N21       29.97F

$$
WYZ014>020-022>026-101>103-130500-
CENTRAL WYOMING

CITY           SKY/WX    TMP DP  RH WIND       PRES   REMARKS
BIG PINEY      FAIR      21  -2  36 CALM      30.31F
PINEDALE       FAIR      21   3  45 NW3       30.31F
DUBOIS         FAIR      34   0  23 N9        30.24F WCI  26
LANDER         FAIR      33  23  66 SE5       30.15F WCI  29
RIVERTON       FAIR      24  17  74 SW7       30.16F WCI  16
CASPER         FAIR      43  17  35 SW20      30.10F
DOUGLAS        FAIR      41  19  41 NW14      30.08R

$$
WYZ021-027>030-104>119-130500-
SOUTHERN WYOMING

CITY           SKY/WX    TMP DP  RH WIND       PRES   REMARKS
EVANSTON       FAIR      32  11  41 SW12      30.36F WCI  23
FORT BRIDGER   FAIR      41   1  18 W15       30.36F
ROCK SPRINGS   FAIR      36   0  21 W13       30.29F WCI  27
DIXON          FAIR      18  12  76 CALM      30.33F
RAWLINS        FAIR      40  12  32 W22G31    30.21F WCI  30
SARATOGA       FAIR      27  16  63 SE7       30.25F WCI  19
LARAMIE        FAIR      34   6  31 CALM      30.19F
CHEYENNE       FAIR      44   8  23 W21G31    30.11F
TORRINGTON     FAIR      43  14  31 NW6       30.00F
PINE BLUFFS    FAIR      41   9  26 MISG      30.05F

$$




USA.gov is the U.S. government's official web portal to all federal, state and local government web resources and services.